User: anonymous
Location: Waning Moon II Observatory
(30.3730°N, 89.7620°W)
Time: 06:17:30
(UTC-05:00)
Language:

Cosmos 1825 Rocket - Orbit

View from above orbital plane
View from above orbital plane
View from above satellite
View from above satellite

Ground track
Ground track

The orbit data is extracted from the following two-line orbital elements,

1 17567U 87024B   14243.47878466  .00000289  00000-0  32372-4 0  4424
2 17567 082.5268 074.0868 0020970 112.2761 309.4646 14.83121270485143
Epoch (UTC): 31 August 2014 11:29:26
Eccentricity: 0.0020970
inclination: 82.5268°
perigee height: 605 km
apogee height: 634 km
right ascension of ascending node: 74.0868°
argument of perigee: 112.2761°
revolutions per day: 14.83121270
mean anomaly at epoch: 309.4646°
orbit number at epoch: 48514

The dashed part of the orbit path shows where the satellite is in the earth's shadow,  

DLR